星链-31645 (STARLINK-31645 )

导读

STARLINK-31645是美国太空探索技术公司(SpaceX)星链(Starlink)星座的卫星,于2024年3月19日发射。星链项目旨在构建全球低轨宽带互联网星座,为全球尤其是偏远地区提供高速网络服务。该卫星采用平板设计、霍尔推进器,具备自主避撞能力,寿命末期会主动离轨坠入大气层烧毁,目前已在轨运行近两年。

Basic Information
目录编号:
59264
目录名称:
STARLINK-31645
国际标识:
2024-050L
轨道中心:
EARTH
卫星名称:
星链-31645
卫星全名:
星链-31645 (STARLINK-31645 )
卫星状态:
在轨 (已飞行899 天)
发射日期:
2024-03-19 UTC
国别 :
美国 (US)
星等 :
--
Orbit Information
数据来源 国际轨道数据
星历时间: 2026-09-02T21:24:14+0800
1天前
查看轨道信息
半长轴: 6840.856km
偏心率: 0.0000572
轨道倾角: 53.158°
近地点辐角 56.321°
升交点赤经 77.632°
平近点角 303.785°
近地点: 462.327km
远地点: 463.111km
周期: 93.848分钟
每日圈数: 15.343949
Detailed Information
固有亮度:
5
最大亮度:
0.3
卫星平台:
Starlink v2.0 mini
覆盖范围:
全球
运营商:
太空探索技术公司
运营商所在国:
美国
制造商(研发单位):
太空探索技术公司
制造商所在国:
美国
使用方式:
暂无
Satellite Introduction
星链(Starlink)计划是由太空探索技术公司(SpaceX)提出的一个巨型低轨卫星互联网星座项目,计划在2019年至2024年间在太空搭建由约1.2万颗卫星组成的“星链”网络,其中1584颗将部署在地球上空550千米处的近地轨道,并从2020年开始工作。该卫星仍在工作。
2D Orbit Map
3D Orbit Map
Orbit Altitude Analysis Chart
Orbit Inclination Analysis Chart
Orbit Comprehensive Analysis Chart
View Comprehensive Chart
Conjunction Data List
Event ID Objects TCA Miss Dist (km) Collision Risk Probability Collision Risk Index (CRI) Action
CDM_260905-054605-926406-609921
2026-09-05T
05:46:39+0000
0.898 km
远距离
2.431201E-5 中风险 0.63
CDM_260905-072005-926406-609921
2026-09-05T
07:20:26+0000
1.525 km
极远距离
4.036339E-6 低风险 0.47
CDM_260905-041205-926406-609921
2026-09-05T
04:12:51+0000
2.782 km
极远距离
1.004403E-6 低风险 0.35